{"data":{"norad_id":69391,"epoch":"2026-09-20T04:51:04.747392Z","epoch_age_seconds":60711,"freshness":"FRESH","line1":"1 69391U 26124K   26263.20213828  .00000112  00000+0  15409-3 0  9993","line2":"2 69391  89.0042 351.9776 0002242 108.7639 251.3756 13.51030581 14893","mean_motion":13.51030581,"eccentricity":0.0002242,"inclination_deg":89.0042,"raan_deg":351.9776,"arg_perigee_deg":108.7639,"mean_anomaly_deg":251.3756,"bstar":0.00015409,"rev_number":1489,"period_min":106.58530015909,"perigee_km":1066.7996831714,"apogee_km":1070.138741397,"semimajor_km":7446.6062122842,"source":"CELESTRAK","updated_at":"2026-09-20T09:00:24.860778Z"}}